KELK

Details ICAO KELK
Name ELK CITY RGNL BUSINESS
Region United States
Timezone America/Chicago (UTC-5.0)
Plans Departing 1
Arriving 3
Stats Elevation 2,002 ft / 610 m (AMSL)
Location 35.430793° -99.394267°
Runways 1
Magnetic Variation 4.818° E
Sunrise 2018-05-21 11:30:18 UTC / 2018-05-21 06:30:18 Local
Sunset 2018-05-22 01:40:56 UTC / 2018-05-21 20:40:56 Local
Advertisement - Login to hide

Runways

ID Width Length Bearing (true) Bearing (mag) Surface Threshold Offset Overrun Length
17 75 ft / 23 m 5,414 ft / 1,650 m 180.12° 175.30° Concrete 0 ft / 0 m 0 ft / 0 m
35 75 ft / 23 m 5,414 ft / 1,650 m 0.12° 355.30° Concrete 0 ft / 0 m 0 ft / 0 m

Map

Weather


0- 5 10 15 20 25 30 35+ Temperature / ° C

Clouds and Precipitation
Forecast for 2018-05-22 00:00 UTC. Updated 5 hours ago

Ground ~20,000 ft ~40,000 ft Winds

METAR

KELK 220435Z AUTO 16004KT 10SM CLR 20/17 A3000 RMK AO2 T01990167

TAF

Not found

Frequencies

Recorded 118.22 MHz AWOS 3
Approach 128.40 MHz FORT WORTH CNTR
Unicom 122.80 MHz CTAF/UNICOM
Warning: Do not use this data for real-world aviation or navigation. No guarantee of current accuracy is given.